AirNav   Everest Fuels
 
 560 users online  

05OR 6 Ranch Airport
Enterprise, Oregon, USA

GOING TO ENTERPRISE?


FAA INFORMATION EFFECTIVE 03 JANUARY 2019

Location

FAA Identifier: 05OR
Lat/Long: 45-26-39.3000N / 117-20-50.3000W
45-26.655000N / 117-20.838333W
45.4442500 / -117.3473056
(estimated)
Elevation: 3500 ft. / 1067 m (estimated)
Variation: 18E (1985)
From city: 3 miles W of ENTERPRISE, OR
Time zone: UTC -8 (UTC -7 during Daylight Saving Time)
Zip code: 97828

Airport Operations

Airport use: Private use. Permission required prior to landing
Activation date: 08/1980
Control tower: no
ARTCC: SEATTLE CENTER
FSS: MC MINNVILLE FLIGHT SERVICE STATION
Attendance: UNATNDD
Wind indicator: yes
Segmented circle: no

Airport Communications

WX AWOS-3 at JSY (6 nm SE): 123.775 ((541) 432-0458)

Nearby radio navigation aids

NDB name  Hdg/Dist  Freq  Var  ID
LA GRANDE060/26.629617ELGD .-.. --. -..

Airport Services

Runway Information

Runway 11/29

Dimensions: 2600 x 50 ft. / 792 x 15 m
Surface: turf
RUNWAY 11  RUNWAY 29
Traffic pattern: leftleft
Obstructions: pline
PLINE AND HILLS AND TREES IN THE APCH.
pline, 3500 ft. from runway

Helipad H1

Dimensions: 75 x 75 ft. / 23 x 23 m
Surface: turf
Traffic pattern: leftleft

Airport Ownership and Management from official FAA records

Ownership: Privately-owned
Owner: MCALISTER LAND, LLC
7892 NE QUAALE RD
MADRAS, OR 97741
Phone 541-426-3827
Manager: LIZA J. MCALISTER
7892 NE QUAALE RD
MADRAS, OR 97741-9562
Phone 541-426-3827

Airport Operational Statistics

Aircraft based on the field: 2
Single engine airplanes: 1
Helicopters: 1
    

Additional Remarks

A52-H1 PLINE AND HILLS AND TREES ALL QUANDRANTS.

Instrument Procedures

There are no published instrument procedures at 05OR.

Some nearby airports with instrument procedures:

KLGD - La Grande/Union County Airport (29 nm W)
KBKE - Baker City Municipal Airport (41 nm SW)
KALW - Walla Walla Regional Airport (55 nm NW)
KLWS - Lewiston-Nez Perce County Airport (58 nm N)
KGIC - Idaho County Airport (59 nm NE)
 
Loc | Ops | Rwys | IFR | FBO | Links
Com | Nav | Svcs | Stats | Notes
Area around 05OR (6 Ranch Airport)
 
Road maps at: MapQuest Bing Google
 
Aerial photo
WARNING: Photo may not be current or correct
Aerial photo of 05OR (6 Ranch Airport)
Do you have a better or more recent aerial photo of 6 Ranch Airport that you would like to share? If so, please send us your photo.

 
Sectional chart

 
Airport distance calculator
Flying to 6 Ranch Airport? Find the distance to fly.

From to 05OR

Sunrise and sunset
Times for 23-Jan-2019
 Local
(UTC-8)
 Zulu
(UTC)
Morning civil twilight06:4814:48
Sunrise07:2115:21
Sunset16:4200:42
Evening civil twilight17:1401:14

Current date and time
Zulu (UTC)  24-Jan-2019 05:43:07
Local (UTC-8)  23-Jan-2019 21:43:07
 
METAR
KLGD 
30nm W 
240456Z AUTO 02003KT 10SM OVC025 02/01 A3036 RMK AO2 RAB03E12UPB12E36 SLP410 P0000 T00170006 FZRANO
KBKE 
41nm SW 
240453Z AUTO 27005KT 10SM FEW029 BKN043 OVC050 02/01 A3033 RMK AO2 SLP293 T00220011
KMEH 
45nm W 
240515Z AUTO 00000KT 2 1/2SM BR OVC004 01/00 A3032 RMK AO2 RAE12 P0000 T00110000
TAF
KBKE 
41nm SW 
231751Z 2318/2418 32010KT P6SM VCSH SCT020 BKN050 TEMPO 2318/2322 -SHRASN BKN020 FM240100 30007KT P6SM SCT020 FM240700 VRB04KT 2SM BR OVC008 FM241600 VRB04KT P6SM SCT010
NOTAMs
Click for the latest NOTAMs
NOTAMs are issued by the DoD/FAA and will open in a separate window not controlled by AirNav.

 

 
 

Would you like to see your business listed on this page?

 If your business provides an interesting product or service to pilots, flight crews, aircraft, or users of the 6 Ranch Airport, you should consider listing it here.  To start the listing process, click on the button below
 
Add a business
 

Other Pages about 6 Ranch Airport

Update a link
 
Copyright © AirNav, LLC. All rights reserved. Privacy Policy  Contact